Current Temps

Weather Temperatures Right Now
Weather Temperatures - Feels Like

Interactive Temperatures Map | Weather by Zip Code

National Weather Service Data
ASUS41 Bulletin

Most recent data in the last 24 hours

633 
ASUS41 KAKQ 210415  WSI PPS:210429
RWRAKQ

REGIONAL WEATHER ROUNDUP
NATIONAL WEATHER SERVICE WAKEFIELD VA
1200 AM EDT TUE APR 21 2015

Note: "fair" indicates few or no clouds below 12,000 feet with no
significant weather and/or obstructions to visibility. * = Denotes
station may not report precipitation (e.g., rain,snow,etc.),
thunder or fog.

VAZ042-051-052>054-056-210500-
NORTHERN VIRGINIA
  
CITY           SKY/WX    TMP DP  RH WIND       PRES   REMARKS
WASH NATIONAL  CLOUDY    64  57  78 S6        29.56R                  
DULLES         MOCLDY    66  54  65 W7        29.58R                  
FORT BELVOIR   MOCLDY    65  59  79 SW3       29.56S                  
QUANTICO       CLOUDY    66  59  78 W7        29.57R                  
FREDERICKSBRG* CLEAR     71  60  68 S12G20    29.56S                  
STAFFORD*      PTCLDY    63  32  31 CALM      29.61S                  
WARRENTON      MOCLDY    64  56  77 CALM      29.57R                  
CULPEPER*      MOCLDY    64  54  68 W7        29.59R THUNDER          
MANASSAS*      MOCLDY    63  59  88 CALM      29.57R                  
LEESBURG*      CLOUDY    64  55  72 N6        29.59R                  
WINCHESTER     CLOUDY    63  46  55 W5        29.61R                  
FRONT ROYAL*   CLOUDY    57  55  94 SE5       29.61R                  
LURAY*         MOCLDY    61  55  82 S5        29.62R                  
$$

VAZ048-049-060>072-079>083-210500-
CENTRAL AND SOUTH CENTRAL VIRGINIA
  
CITY           SKY/WX    TMP DP  RH WIND       PRES   REMARKS
RICHMOND       MOCLDY    69  59  70 S17       29.61F                  
CHESTERFIELD*  NOT AVBL                                               
PETERSBURG*    CLOUDY    67  61  80 S7        29.64F                  
HANOVER        PTCLDY    69  58  67 S18G28    29.61S                  
TAPPAHANNOCK*  PTCLDY    71  55  58 S12G23    29.61R                  
QUINTON*       FAIR      68  60  75 S6        29.62S                  
CHARLOTTSVILLE LGT RAIN  58  55  90 VRB3      29.61R                  
GORDONSVILLE*  MOCLDY    60  53  77 W3        29.59R                  
ORANGE*        PTCLDY    61  54  77 SW5       29.61R                  
LOUISA*        CLOUDY    70  59  68 S9        29.57S                  
BUMPASS*       FAIR      67  58  73 S9G16     29.59R                  
FARMVILLE*     PTCLDY    67  56  67 SW10G17   29.61R                  
CREWE*         FAIR      65  58  77 S6        29.64R                  
FORT PICKETT*  MOCLDY    65  60  86 SW14G21   29.65R                  
CHASE CITY*    FAIR      66  64  92 SW3       29.65R                  
CLARKSVILLE*   FAIR      63  61  94 SW8       29.65S                  
SOUTH HILL*    MOCLDY    64  61  88 SW9       29.72R THUNDER          
LAWRENCEVILLE* FAIR      64  61  90 S8        29.65S                  
EMPORIA*       CLEAR     63  61  94 S5        29.68S                  
$$

VAZ088>098-210500-
SOUTHEAST VIRGINIA
  
CITY           SKY/WX    TMP DP  RH WIND       PRES   REMARKS
NORFOLK        CLOUDY    71  61  70 SW17G25   29.65S                  
VIRGINIA BEACH CLOUDY    72  61  68 S14       29.66S                  
NORFOLK NAVAL  CLOUDY    75  62  64 SW12G23   29.67R                  
WEST POINT*    CLOUDY    73  59  62 S10       29.63F                  
SALUDA*        FAIR      71  61  70 SW13G20   29.62R                  
NEWPORT NEWS   CLOUDY    74  61  63 SW16      29.64S                  
LANGLEY AFB    CLOUDY    71  63  74 S17G23    29.63R                  
FORT EUSTIS    CLOUDY    71  61  72 SW12G21   29.62S                  
WILLIAMSBURG*  CLOUDY    73  64  73 SW7       29.65R                  
HR EXEC AP*    MOCLDY    72  63  73 S12G17    29.68S                  
FRANKLIN*      MOCLDY   N/A N/A N/A SW10      29.67S                  
WAKEFIELD      MOCLDY    69  62  78 S6        29.64S                  
$$

VAZ020-022-025-037-045-210500-
WEST CENTRAL AND SOUTHWEST VIRGINIA
  
CITY           SKY/WX    TMP DP  RH WIND       PRES   REMARKS
STAUNTON*      CLOUDY    58  53  83 SW3       29.66R                  
WAYNESBORO*    CLOUDY    56  54  91 SW6       29.65R                  
HOT SPRINGS VA MOCLDY    47  47 100 W18G25    29.68F                  
LYNCHBURG      MOCLDY    61  51  70 SW6       29.66R                  
DANVILLE       PTCLDY    61  55  81 W6        29.66F                  
SOUTH BOSTON*  FAIR      63  57  81 S7        29.65S                  
MARTINSVILLE   CLOUDY    60  60 100 CALM      29.72R                  
ROANOKE        FAIR      58  48  69 W13       29.71R                  
BLACKSBURG     PTCLDY    53  46  77 W8        29.75R                  
DUBLIN*        PTCLDY    56  48  75 W9        29.74S                  
MARION*        RAIN      50  43  76 W17G33    29.81R                  
HILLSVILLE*    PTCLDY    54  45  71 W7        29.74R                  
RICHLANDS*     CLOUDY    46  40  77 W13       29.83R                  
WISE*          CLOUDY    46  37  71 W10G23    29.84R                  
ABINGDON*      CLOUDY    54  45  71 N15       29.82R                  
$$

MDZ021>025-VAZ099-100-210500-
SOUTHERN MARYLAND AND THE DELMARVA PENINSULA
  
CITY           SKY/WX    TMP DP  RH WIND       PRES   REMARKS
PATUXENT RIVER CLOUDY    70  59  68 SW15G24   29.57S                  
BAY BRIDGE APT   N/A    N/A N/A N/A SE8       29.55S                  
LEONARDTOWN    CLOUDY    70  59  68 S10G16    29.59R                  
DOVER          CLOUDY    63  55  77 SW2       29.54F THUNDER          
GEORGETOWN     CLOUDY    68  60  75 S13       29.60S                  
EASTON         CLOUDY    70  61  73 S7        29.60F                  
CAMBRIDGE      CLOUDY    72  61  68 S8        29.58S                  
SALISBURY      CLOUDY    70  60  70 S14       29.59F                  
OCEAN CITY     CLOUDY    57  55  93 SW7       29.62F                  
WALLOPS ISLAND CLOUDY    63  61  93 S10       29.63S                  
ACCOMACK*      CLOUDY    72  61  68 SW12G20   29.63R                  
$$

NCZ012>017-030>032-210500-
NORTH CENTRAL AND EASTERN NORTH CAROLINA
  
CITY           SKY/WX    TMP DP  RH WIND       PRES   REMARKS
ROANOKE RAPIDS FAIR      68  61  77 SW13G21   29.68R                  
RALEIGH        MOCLDY    68  63  84 SW16G22   29.68S THUNDER          
ELIZABETH CITY CLOUDY    69  63  81 S12       29.70S                  
AHOSKIE*       CLEAR     69  62  77 S7        29.68F                  
EDENTON*       CLOUDY    68  63  82 S9        29.70F                  
CURRITUCK*     CLOUDY    70  61  72 S8        29.71R                  
KILL DEVIL HLS CLOUDY    70  64  80 S9        29.71F                  
MANTEO         LGT RAIN  69  64  85 S21G31    29.72F                  
CAPE HATTERAS  CLOUDY    67  65  93 SW12      29.78R                  
TARBORO*       FAIR      70  63  78 S9G18     29.70F                  
GOLDSBORO      MOCLDY    68  64  85 S12G18    29.71R                  
WASHINGTON     CLOUDY    68  63  82 S8        29.73S                  
GREENVILLE     MOCLDY    70  63  78 SW9       29.75S                  
NEW BERN       CLOUDY    68  63  84 SW7       29.76S                  
WILMINGTON     CLOUDY    70  63  78 SW13G21   29.77S                  
$$

VAZ048-210500-
ELSEWHERE
  
CITY           SKY/WX    TMP DP  RH WIND       PRES   REMARKS
HARRISBURG PA  LGT RAIN  58  55  90 N9        29.55F FOG              
BALTIMORE      CLOUDY    62  54  74 W5        29.55R                  
ANNAPOLIS      CLOUDY    63  55  75 CALM      29.54F                  
ANDREWS AFB    CLOUDY    62  59  91 SW6       29.55S                  
PHILADELPHIA   LGT RAIN  63  56  78 SW18      29.58S                  
HENDERSON NC   HVY RAIN  65  62  89 SW14      29.68R                  
GREENSBORO     MOCLDY    62  56  80 SW9       29.69S                  
ROCKY MOUNT    PTCLDY    69  63  81 S12       29.68F                  
$$

VAZ100-210500-
MARINE
  
STATION/POSITION TIME  TEMP    WIND        PRES    WAVE   SWELL
                       AIR SEA DIR/SP/G            HT/PER HT/PER
                 (UTC) (F)     (DEG/KT/KT) (MB)    (FT/S) (FT/S)
BRANDYWINE LGT   0300   61 50  190/ 19/ 20 1001.9F
CAPE MAY NJ      0300   57 58  170/  9/ 14 1001.8F
LEWES DE         0300   69 50  210/  8/ 15 1002.0S
15NM E FENWICK I 0350   53 48              1002.6R   8/ 9
OCEAN-CITY-INLET 0300   54 50  210/ 11/ 13 1002.9F
WACHAPREAGUE VA  0300   64 64  230/  8/ 13 1003.6R
THOMAS POINT MD  0400   61 56  170/ 10/ 11 1001.0F
GOOSES REEF MD   0400   66 57  220/ 10/ 14   N/A     1/ 3
COVE POINT MD    0300   71     210/ 15/ 19 1001.1F
SOLOMONS ISLAND  0300      58                N/A
BISHOPS HEAD MD  0300   66 66  190/ 13/ 15 1001.5F
PINEY POINT MD   0306          220/ 18/ 20   N/A
CAMBRIDGE MD     0300   70 59  190/  6/ 10 1001.2F
LEWISETTA VA     0300   72 65              1001.2F
RAPPAHANNOCK LGT 0300          160/ 16/ 16 1003.2F
STINGRAY PT      0400   67 57  220/ 12/ 14 1004.7R   1/ 2
YORK RVR RNG VA  0300   68     210/ 21/ 22 1002.4F
YORKTOWN VA      0300   72 60  200/ 11/ 18 1002.8F
DOMINION TERM VA 0300   71     200/ 17/ 20 1003.6F
KIPTOPEKE VA     0300      62  200/ 14/ 16   N/A
CHES BAY BRIDGE  0300   71 55  180/ 16/ 20 1003.7R
CAPE HENRY VA    0300   72     180/ 13/ 17 1003.0F
CHESAPEAKE LGHT  0300   63     200/ 26/ 27 1004.6S
WILLOUBY STN VA  0300   72     190/ 17/ 22 1004.3F
S CRANEY ISL VA  0300          180/ 14/ 18 1003.9F
CAPE HENRY BUOY  0328      55                N/A     5/ 8   2/11
1ST LANDING BUOY 0400   67     200/ 16/ 25 1003.9R   3/ 4
OFFSHORE WE BUOY 0311      49                N/A     6/ 8   3/ 8
64NM E OF VA BCH 0350   63 58  210/ 19/ 23 1005.3R   6/ 8   3/ 8
DUCK PIER NC     0300   71 54  210/ 18/ 23 1005.1F
44056 DUCK FRF   0341      56                N/A     4/ 8   2/13
OREGON INLET NC  0300   67 68  200/ 18/ 20 1007.1S
HATTERAS NC      0300   71 69  210/ 12/ 16 1007.6R
DIAMOND SHLS NC  0350   76 75  210/ 21/ 27 1007.9R   6/ 7   2/10
CAPE LOOKOUT NC  0400   67     220/  9/ 11 1008.5R
$$



ASUS41 Bulletin

Most recent data in the last 24 hours

006 
ASUS41 KLWX 210411  WSI PPS:210424
RWRLWX

REGIONAL WEATHER ROUNDUP
NATIONAL WEATHER SERVICE BALTIMORE MD/WASHINGTON DC
1200 AM EDT TUE APR 21 2015

Note: "FAIR" indicates few or no clouds below 12,000 feet
with no significant weather and/or obstructions to visibility.
 TC=TEMPERATURE CELSIUS

 * =Non NWS site. Station does not report precipitation (e.g. rain,
    snow, etc.), thunder, or fog.

DCZ001-MDZ009-015-VAZ040>042-051-053>054-210500-
WASHINGTON METRO
  
CITY           SKY/WX    TMP DP  RH WIND       PRES   REMARKS
WASHINGTON NAT CLOUDY    64  57  78 S6        29.56R                  
DULLES         MOCLDY    66  54  65 W7        29.58R                  
ANDREWS AFB    CLOUDY    62  59  91 SW6       29.55S                  
FT BELVOIR     MOCLDY    65  59  79 SW3       29.56S                  
QUANTICO       CLOUDY    66  59  78 W7        29.57R                  
COLLEGE PARK*  CLOUDY    63  59  88 CALM      29.55S                  
LEESBURG*      CLOUDY    64  55  72 N6        29.59R                  
MANASSAS*      MOCLDY    63  59  88 CALM      29.57R                  
GAITHERSBURG*  MOCLDY    61  54  77 NW8       29.63R                  

$$

MDZ006>007-011-014-210500-
BALTIMORE METRO
  
CITY           SKY/WX    TMP DP  RH WIND       PRES   REMARKS
BWI AIRPORT    CLOUDY    62  54  74 W5        29.55R                  
MD SCIENCE CTR   N/A     64  55  72 MISG      29.56R                  
MARTIN STATE   CLOUDY    63  57  82 CALM      29.56S                  
ANNAPOLIS      CLOUDY    63  55  75 CALM      29.54F                  
FORT MEADE*    CLOUDY    57  55  94 CALM      29.58R                  

$$

MDZ012-015-019>023-210500-
MARYLAND EASTERN SHORE
  
CITY           SKY/WX    TMP DP  RH WIND       PRES   REMARKS
OCEAN CITY     CLOUDY    57  55  93 SW7       29.62F                  
SALISBURY      CLOUDY    70  60  70 S14       29.59F                  
BAY BRIDGE AP*   N/A    N/A N/A N/A SE8       29.55S                  
CAMBRIDGE*     CLOUDY    72  61  68 S8        29.58S                  
EASTON*        CLOUDY    70  61  73 S7        29.60F                  

$$

MDZ017>025-210500-
SOUTHERN MARYLAND
  
CITY           SKY/WX    TMP DP  RH WIND       PRES   REMARKS
PATUXENT RIVER CLOUDY    70  59  68 SW15G24   29.57S                  
ST INIGOES     CLOUDY    70  59  68 S16G24    29.58R                  
LEONARDTOWN*   CLOUDY    70  59  68 S10G16    29.59R                  

$$

MDZ003>005-210500-
NORTH CENTRAL MARYLAND
  
CITY           SKY/WX    TMP DP  RH WIND       PRES   REMARKS
FREDERICK*     CLOUDY    61  54  77 N3        29.60F                  
HAGERSTOWN APT LGT RAIN  61  54  77 CALM      29.59R                  
WESTMINSTER*   RAIN      61  57  88 NW12G24   29.61R                  

$$

MDZ501>502-210500-
WESTERN MARYLAND
  
CITY           SKY/WX    TMP DP  RH WIND       PRES   REMARKS
OAKLAND*       CLOUDY    45 N/A N/A W16G26    29.66R HAZE             
CUMBERLAND*    MOCLDY    59  52  77 S6        29.64S                  

$$

VAZ025>031-210500-
SHENANDOAH VALLEY
  
CITY           SKY/WX    TMP DP  RH WIND       PRES   REMARKS
WINCHESTER*    CLOUDY    63  46  55 W5        29.61R                  
FRONT ROYAL*   NOT AVBL                                               
LURAY*         NOT AVBL                                               
NEW MARKET*    CLOUDY    60  51  71 CALM      29.61R                  
STAUNTON*      CLOUDY    58  53  83 SW3       29.66R                  
WAYNESBORO*    CLOUDY    56  54  91 SW6       29.65R                  

$$

WVZ021-048>050-054>055-210500-
EASTERN WEST VIRGINIA PANHANDLE
  
CITY           SKY/WX    TMP DP  RH WIND       PRES   REMARKS
MARTINSBURG    NOT AVBL                                               
PETERSBURG*    NOT AVBL                                               

$$

VAZ036>039-050-210500-
CENTRAL FOOTHILLS
  
CITY           SKY/WX    TMP DP  RH WIND       PRES   REMARKS
CHARLOTTESVILL LGT RAIN  58  55  90 VRB3      29.61R                  
CULPEPER*      MOCLDY    64  54  68 W7        29.59R THUNDER          
ORANGE*        PTCLDY    61  54  77 SW5       29.61R                  
GORDONSVILLE*  NOT AVBL                                               
WARRENTON*     FAIR      64  56  77 CALM      29.57R                  

$$

VAZ055>057-210500-
NORTH AND CENTRAL PIEDMONT
  
CITY           SKY/WX    TMP DP  RH WIND       PRES   REMARKS
FREDERICKSBRG* CLEAR     71  60  68 S12G20    29.56S                  
STAFFORD*      PTCLDY    63  32  31 CALM      29.61S                  

$$

NCZ024-NYZ072-PAZ021-071-VAZ022-071-210500-
OTHER REGIONAL OBSERVATIONS
  
CITY           SKY/WX    TMP DP  RH WIND       PRES   REMARKS
NEW YORK CITY  FOG       52  52 100 E8        29.61F VSB 3/4          
PHILADELPHIA   LGT RAIN  63  56  78 SW18      29.58S                  
PITTSBURGH     LGT RAIN  51  42  71 W13G22    29.64R                  
ROANOKE        FAIR      58  48  69 W13       29.71R                  
RICHMOND       MOCLDY    69  59  70 S17       29.61F                  
RALEIGH        MOCLDY    68  63  84 SW16G22   29.68S THUNDER          

$$

ANZ530>537-210500-
MARINE OBSERVATIONS
  
STATION/POSITION TIME  TEMP    WIND        PRES
                       AIR SEA DIR/SP/G
                 (UTC) (F)     (DEG/KT/KT) (MB)
THOMAS PT LIGHT  0400   61 56  170/ 10/ 11 1001.0F
BALT KEY BRIDGE  0300   63     150/ 13/ 14  999.8F
COVE POINT       0300   71     210/ 15/ 19 1001.1F
LEWISETTA        0300   72 65              1001.2F
SOLOMONS ISLAND  0300      58                N/A
PINEY POINT      0306          220/ 18/ 20   N/A

$$



Weather Maps

LOCAL DOPPLER RADAR

LOCAL FORECAST

METRO ZONE WEATHER

REGIONAL WEATHER

EASTERN WEATHER

NATIONAL WEATHER

SEVERE WEATHER

Weather Cams
Topper Shutt Weather Blog
Howard Bernstein Weather Blog
Erica Grow Weather Blog
Weather Photos
Get automated phone alerts when severe weather is in your area. Sign up for the WUSA9 First Alert Weather Call.